Regional Weather Roundup
Issued by NWS

Home | Current Version | Previous Version | Graphics & Text | Print | Product List | Glossary On
Versions: 1 2 3 4 5 6 7 8 9 10 11 12 13 14 15 16 17 18 19 20 21 22 23 24 25 26 27 28 29 30 31 32 33 34 35 36 37 38 39 40 41 42 43 44 45 46 47 48 49 50
000
ASUS43 KFSD 192310
RWRSD

WEATHER ROUNDUP FOR SOUTH DAKOTA
NATIONAL WEATHER SERVICE SIOUX FALLS SD
600 PM CDT SUN APR 19 2015

NOTE: "FAIR" INDICATES FEW OR NO CLOUDS BELOW 12,000 FEET WITH NO
SIGNIFICANT WEATHER AND/OR OBSTRUCTIONS TO VISIBILITY.


SDZ001>005-009-010-012>017-200000-
NORTHWEST AND NORTH CENTRAL SOUTH DAKOTA

CITY           SKY/WX    TMP DP  RH WIND       PRES   REMARKS
BUFFALO          N/A     51  18  27 NW31G44   29.92R
FAITH            N/A     50  24  36 NW31G45   29.94S
MOBRIDGE       LGT RAIN  47  36  65 NW23G32   29.86S
$$

SDZ012>016-024>037-041>051-057-063-072>074-200000-
SOUTHWEST AND SOUTH CENTRAL SOUTH DAKOTA

CITY           SKY/WX    TMP DP  RH WIND       PRES   REMARKS
RAPID CTY ARPT PTSUNNY   53  18  25 NW28G41   29.98S
PIERRE         CLOUDY    49  32  52 NW22G29   29.90S
CUSTER         CLOUDY    39  14  36 NW10G26   29.99R
ELLSWORTH AFB  MOSUNNY   51  19  28 N32G40    29.97R
PHILIP         PTSUNNY   50  25  37 N25G39    29.96S
PINE RIDGE     CLOUDY    50  21  32 N17G26    29.98S
SPEARFISH      FAIR      45  19  36 NW18G32   30.02S
WINNER         CLOUDY    51  28  41 NW26G33   29.89S
$$

SDZ004>011-016>023-039-040-200000-
NORTHEAST SOUTH DAKOTA

CITY           SKY/WX    TMP DP  RH WIND       PRES   REMARKS
ABERDEEN       PTSUNNY   52  38  58 NW15      29.81R
WATERTOWN      LGT RAIN  47  37  68 N22G33    29.74R
BROOKINGS      PTSUNNY   54  30  40 NW31G37   29.72S
SISSETON         N/A     51  38  60 N20G35    29.72R
$$

SDZ017-020-022-023-036>040-048>070-200000-
SOUTHEAST SOUTH DAKOTA

CITY           SKY/WX    TMP DP  RH WIND       PRES   REMARKS
SIOUX FALLS    PTSUNNY   56  29  35 NW32G43   29.72F
HURON          PTSUNNY   54  31  41 N22G30    29.78S
CHAMBERLAIN    CLOUDY    51  31  46 NW22G30   29.87R
MITCHELL       CLOUDY    54  31  41 NW28G38   29.81R
YANKTON        PTSUNNY   54  30  40 NW26G43   29.77S
$$

ABBREVIATIONS USED IN REMARKS
   TC - TEMPERATURE IN CELSIUS
  WCI - WIND CHILL INDEX
   HX - HEAT INDEX
  VSB - VISIBILITY



USA.gov is the U.S. government's official web portal to all federal, state and local government web resources and services.